カタログに戻る

NIMBUS 7

運用中気象SSO
NORAD 11080·PAYLOAD·🇺🇸 United States

打ち上げ Oct 24, 1978 から Vandenberg Space Force Base

Loading…

次のパス (今後24時間)

TLE

最新Source: Space-Track

元期: Sep 14, 2026, 09:55 UTC

1 11080U 78098A   26257.41345484 -.00000025  00000-0  18613-4 0  9998
2 11080  99.4536 142.2883 0009473  38.9765 321.2071 13.84523185419041

AllMySatでNIMBUS 7をリアルタイム追跡

Download on the App Store